Hourly Weather Belmopan

Today, 14 July, Tuesday

Time Temperature Precipitation Wind Pressure Humidity
00:00 +25°C° 0 mm 1 mps 753 mmHg 98%
01:00 +25°C° 0.1 mm 1 mps 753 mmHg 98%
02:00 +23°C° 0.1 mm 0 mps 752 mmHg 98%
03:00 +23°C° 0.1 mm 0 mps 752 mmHg 98%
04:00 +23°C° 0.1 mm 0 mps 752 mmHg 98%
05:00 +23°C° 0.1 mm 0 mps 752 mmHg 98%
06:00 +23°C° 0.1 mm 0 mps 753 mmHg 98%
07:00 +27°C° 0.1 mm 1 mps 753 mmHg 88%
08:00 +29°C° 0.1 mm 2 mps 753 mmHg 78%
09:00 +31°C° 0.1 mm 2 mps 753 mmHg 68%
10:00 +33°C° 0.4 mm 3 mps 753 mmHg 69%
11:00 +33°C° 0.4 mm 3 mps 753 mmHg 70%
12:00 +33°C° 0.4 mm 3 mps 753 mmHg 71%
13:00 +33°C° 1.1 mm 3 mps 752 mmHg 73%
14:00 +31°C° 1.1 mm 3 mps 752 mmHg 74%
15:00 +31°C° 1.1 mm 3 mps 751 mmHg 76%
16:00 +30°C° 0.8 mm 2 mps 751 mmHg 80%
17:00 +29°C° 0.8 mm 2 mps 752 mmHg 83%
18:00 +28°C° 0.8 mm 2 mps 752 mmHg 87%
19:00 +27°C° 0.1 mm 1 mps 752 mmHg 91%
20:00 +27°C° 0.1 mm 1 mps 753 mmHg 94%
21:00 +26°C° 0.1 mm 1 mps 753 mmHg 98%
22:00 +26°C° 0.1 mm 1 mps 753 mmHg 98%
23:00 +26°C° 0.1 mm 1 mps 753 mmHg 99%

Tomorrow, 15 July, Wednesday

Time Temperature Precipitation Wind Pressure Humidity
00:00 +26°C° 0.1 mm 1 mps 753 mmHg 99%
01:00 +26°C° 0.1 mm 1 mps 752 mmHg 99%
02:00 +26°C° 0.1 mm 1 mps 752 mmHg 99%
03:00 +25°C° 0.1 mm 1 mps 751 mmHg 99%
04:00 +26°C° 0.1 mm 1 mps 752 mmHg 99%
05:00 +26°C° 0.1 mm 1 mps 752 mmHg 99%
06:00 +26°C° 0.1 mm 1 mps 752 mmHg 98%
07:00 +28°C° 0.1 mm 2 mps 752 mmHg 89%
08:00 +29°C° 0.1 mm 2 mps 753 mmHg 79%
09:00 +31°C° 0.1 mm 3 mps 753 mmHg 70%
10:00 +34°C° 0 mm 3 mps 753 mmHg 62%
11:00 +35°C° 0 mm 4 mps 753 mmHg 55%
12:00 +36°C° 0 mm 4 mps 753 mmHg 47%
13:00 +36°C° 0 mm 4 mps 752 mmHg 48%
14:00 +36°C° 0 mm 4 mps 752 mmHg 50%
15:00 +35°C° 0 mm 4 mps 751 mmHg 51%
16:00 +34°C° 0 mm 3 mps 752 mmHg 60%
17:00 +31°C° 0 mm 3 mps 752 mmHg 68%
18:00 +30°C° 0 mm 2 mps 752 mmHg 77%
19:00 +29°C° 0.1 mm 2 mps 752 mmHg 84%
20:00 +27°C° 0.1 mm 1 mps 753 mmHg 91%
21:00 +26°C° 0.1 mm 1 mps 753 mmHg 98%
22:00 +26°C° 0.1 mm 1 mps 753 mmHg 98%
23:00 +26°C° 0.1 mm 1 mps 753 mmHg 98%

Day after tomorrow, 16 July, Thursday

Time Temperature Precipitation Wind Pressure Humidity
00:00 +26°C° 0.1 mm 1 mps 753 mmHg 98%
01:00 +26°C° 0 mm 1 mps 753 mmHg 98%
02:00 +25°C° 0 mm 1 mps 752 mmHg 98%
03:00 +25°C° 0 mm 1 mps 752 mmHg 98%
04:00 +23°C° 0 mm 0 mps 752 mmHg 98%
05:00 +23°C° 0 mm 0 mps 752 mmHg 98%
06:00 +23°C° 0 mm 0 mps 752 mmHg 98%
07:00 +27°C° 0.1 mm 1 mps 753 mmHg 88%
08:00 +30°C° 0.1 mm 1 mps 753 mmHg 77%
09:00 +32°C° 0.1 mm 2 mps 754 mmHg 67%
10:00 +34°C° 0.1 mm 2 mps 753 mmHg 62%
11:00 +35°C° 0.1 mm 3 mps 753 mmHg 56%
12:00 +36°C° 0.1 mm 3 mps 753 mmHg 51%
13:00 +36°C° 0.1 mm 3 mps 752 mmHg 52%
14:00 +36°C° 0.1 mm 3 mps 752 mmHg 53%
15:00 +36°C° 0.1 mm 3 mps 752 mmHg 55%
16:00 +34°C° 0 mm 3 mps 752 mmHg 61%
17:00 +32°C° 0 mm 2 mps 752 mmHg 68%
18:00 +30°C° 0 mm 2 mps 752 mmHg 75%
19:00 +29°C° 0 mm 1 mps 752 mmHg 82%
20:00 +28°C° 0 mm 1 mps 753 mmHg 90%
21:00 +26°C° 0 mm 1 mps 753 mmHg 97%
22:00 +24°C° 0 mm 0 mps 753 mmHg 98%
23:00 +24°C° 0 mm 0 mps 753 mmHg 98%

17 July, Friday

Time Temperature Precipitation Wind Pressure Humidity
00:00 +24°C° 0 mm 0 mps 753 mmHg 99%
01:00 +24°C° 0.2 mm 0 mps 753 mmHg 99%
02:00 +23°C° 0.2 mm 0 mps 752 mmHg 99%
03:00 +23°C° 0.2 mm 0 mps 752 mmHg 99%
04:00 +23°C° 0.1 mm 0 mps 752 mmHg 99%
05:00 +23°C° 0.1 mm 0 mps 752 mmHg 99%
06:00 +23°C° 0.1 mm 0 mps 752 mmHg 99%
07:00 +25°C° 0.3 mm 0 mps 752 mmHg 91%
08:00 +27°C° 0.3 mm 0 mps 753 mmHg 83%
09:00 +31°C° 0.3 mm 1 mps 753 mmHg 75%
10:00 +32°C° 0.2 mm 1 mps 753 mmHg 68%
11:00 +34°C° 0.2 mm 2 mps 753 mmHg 60%
12:00 +36°C° 0.2 mm 2 mps 752 mmHg 52%
13:00 +35°C° 0.4 mm 2 mps 752 mmHg 54%
14:00 +35°C° 0.4 mm 2 mps 752 mmHg 56%
15:00 +35°C° 0.4 mm 2 mps 751 mmHg 58%
16:00 +32°C° 0 mm 2 mps 751 mmHg 63%
17:00 +31°C° 0 mm 2 mps 751 mmHg 68%
18:00 +30°C° 0 mm 1 mps 751 mmHg 73%
19:00 +29°C° 0 mm 1 mps 751 mmHg 80%
20:00 +27°C° 0 mm 1 mps 752 mmHg 86%
21:00 +24°C° 0 mm 0 mps 752 mmHg 93%
22:00 +23°C° 0 mm 0 mps 752 mmHg 94%
23:00 +23°C° 0 mm 0 mps 752 mmHg 95%

18 July, Saturday

Time Temperature Precipitation Wind Pressure Humidity
00:00 +23°C° 0 mm 0 mps 752 mmHg 97%
01:00 +23°C° 0 mm 0 mps 751 mmHg 97%
02:00 +23°C° 0 mm 0 mps 751 mmHg 97%
03:00 +22°C° 0 mm 0 mps 751 mmHg 96%
04:00 +23°C° 0 mm 0 mps 751 mmHg 96%
05:00 +23°C° 0 mm 0 mps 751 mmHg 95%
06:00 +23°C° 0 mm 0 mps 751 mmHg 94%
07:00 +25°C° 0 mm 0 mps 752 mmHg 83%
08:00 +28°C° 0 mm 0 mps 752 mmHg 71%
09:00 +31°C° 0 mm 0 mps 753 mmHg 60%
10:00 +33°C° 0.3 mm 1 mps 752 mmHg 62%
11:00 +33°C° 0.3 mm 1 mps 752 mmHg 64%
12:00 +33°C° 0.3 mm 1 mps 752 mmHg 66%
13:00 +34°C° 0.9 mm 2 mps 751 mmHg 66%
14:00 +34°C° 0.9 mm 2 mps 751 mmHg 66%
15:00 +34°C° 0.9 mm 2 mps 750 mmHg 65%
16:00 +32°C° 0.1 mm 2 mps 750 mmHg 68%
17:00 +31°C° 0.1 mm 2 mps 750 mmHg 70%
18:00 +30°C° 0.1 mm 2 mps 750 mmHg 72%
19:00 +28°C° 0 mm 1 mps 751 mmHg 78%
20:00 +27°C° 0 mm 1 mps 751 mmHg 84%
21:00 +25°C° 0 mm 1 mps 752 mmHg 91%
22:00 +25°C° 0 mm 1 mps 752 mmHg 92%
23:00 +25°C° 0 mm 1 mps 752 mmHg 94%

19 July, Sunday

Time Temperature Precipitation Wind Pressure Humidity
00:00 +22°C° 0 mm 0 mps 751 mmHg 96%
01:00 +22°C° 0 mm 0 mps 751 mmHg 97%
02:00 +22°C° 0 mm 0 mps 751 mmHg 97%
03:00 +22°C° 0 mm 0 mps 750 mmHg 98%
04:00 +22°C° 0 mm 0 mps 751 mmHg 97%
05:00 +22°C° 0 mm 0 mps 751 mmHg 96%
06:00 +22°C° 0 mm 0 mps 751 mmHg 96%
07:00 +25°C° 0 mm 0 mps 751 mmHg 85%
08:00 +29°C° 0 mm 1 mps 752 mmHg 75%
09:00 +32°C° 0 mm 1 mps 752 mmHg 64%
10:00 +33°C° 0.3 mm 1 mps 752 mmHg 61%
11:00 +34°C° 0.3 mm 2 mps 752 mmHg 58%
12:00 +35°C° 0.3 mm 2 mps 752 mmHg 55%
13:00 +35°C° 0.2 mm 2 mps 751 mmHg 54%
14:00 +35°C° 0.2 mm 3 mps 751 mmHg 54%
15:00 +35°C° 0.2 mm 3 mps 750 mmHg 54%
16:00 +34°C° 0.1 mm 2 mps 750 mmHg 60%
17:00 +31°C° 0.1 mm 2 mps 750 mmHg 66%
18:00 +29°C° 0.1 mm 2 mps 751 mmHg 72%
19:00 +28°C° 0 mm 1 mps 751 mmHg 80%
20:00 +26°C° 0 mm 1 mps 751 mmHg 88%
21:00 +25°C° 0 mm 1 mps 752 mmHg 96%
22:00 +25°C° 0 mm 1 mps 752 mmHg 97%
23:00 +23°C° 0 mm 0 mps 751 mmHg 98%
Show more